Flag for Angola Weather past 2 weeks in Lubango, Angola

Now
82 °F

Clear.


Feels Like: 80 °F
Forecast: 51 / 83 °F
Wind: 2 mph from Northwest

Location: Ondangwa

Current Time: Aug 20, 2014 at 8:22:37 PM

Latest Report: Aug 20, 2014 at 7:00 PM


Visibility: 10 mi

Pressure: 29.98 "Hg

Humidity: 16%

Dew point: 32 °F

Location of LubangoLocation

Historic Weather in Lubango — Graph

°F

Lubango temperature yesterday

Maximum temperature yesterday: 91 °F (at 2:00 PM)
Minimum temperature yesterday: 63 °F (at 6:00 AM)
Average temperature yesterday: 76 °F

Past Weeks' High & Low Weather Summary

 TemperatureHumidityPressure
High93 °F (Aug 20, 2:00 PM)63% (Aug 14, 4:00 PM)30.18 "Hg (Aug 14, 4:00 PM)
Low46 °F (Aug 9, 6:00 AM)5% (Aug 16, 10:00 AM)29.92 "Hg (Aug 12, 3:00 PM)
Average72 °F20%30.06 "Hg
* Reported Aug 5 6:00 PM — Aug 20 6:00 PM, Lubango, Weather by CustomWeather, © 2014

Note: Actual official high and low records may vary slightly from our data, if they occured in-between our weather recording intervals... More about our weather records

Advertising

Lubango weather history for previous 24 hours

 ConditionsComfort  
Time TempWeatherWind HumidityBarometerVisibility
6:00 PM
Aug 20
82 °FPleasantly warm.2 mph16%29.95 "HgN/A
5:00 PM90 °FHot.3 mph12%29.95 "HgN/A
4:00 PM91 °FHot.2 mph12%29.92 "HgN/A
3:00 PM93 °FExtremely hot.2 mph11%29.95 "HgN/A
2:00 PM93 °FExtremely hot.3 mph11%29.95 "HgN/A
1:00 PM91 °FSunny.8 mph12%30.01 "Hg10 mi
12:00 PM91 °FSunny.12 mph12%30.01 "Hg10 mi
11:00 AM88 °FSunny.14 mph13%30.07 "Hg10 mi
10:00 AM86 °FSunny.12 mph14%30.09 "Hg10 mi
9:00 AM77 °FSunny.2 mph21%30.09 "Hg10 mi
8:00 AM68 °FSunny.6 mph28%30.09 "Hg10 mi
6:00 AM66 °FClear.1 mph28%30.04 "Hg10 mi
5:00 AM68 °FMild.1 mph26%30.04 "HgN/A
4:00 AM72 °FMild.3 mph25%30.01 "HgN/A
3:00 AM70 °FMild.3 mph27%30.04 "HgN/A
2:00 AM72 °FMild.3 mph23%30.01 "HgN/A
1:00 AM73 °FMild.2 mph22%30.01 "HgN/A
12:00 AM73 °FMild.No wind22%30.04 "HgN/A
11:00 PM
Aug 19
75 °FMild.5 mph21%30.04 "HgN/A
10:00 PM73 °FMild.3 mph23%30.04 "HgN/A
9:00 PM77 °FPleasantly warm.1 mph19%30.04 "HgN/A
8:00 PM75 °FMild.No wind22%30.01 "HgN/A
Weather by CustomWeather, © 2014

See weather overviewHow to use our weather pages